• In Czech Republic
  • List of Countries
  • For 7 days
  • Water Temperature
  • Satellite Maps
  • Weather Map
  • Weather Widgets
  • user-avatar
    Login

    Hourly Weather Irkino

    Today, 20 April, Friday

    Time Temperature Precipitation Wind Pressure Humidity
    00:00 +4°C° 0.6 mm 3 mps 746 mmHg 97%
    01:00 +4°C° 0.7 mm 3 mps 746 mmHg 96%
    02:00 +4°C° 0.7 mm 4 mps 746 mmHg 95%
    03:00 +4°C° 0 mm 3 mps 747 mmHg 96%
    04:00 +3°C° 0.4 mm 4 mps 747 mmHg 94%
    05:00 +3°C° 0.4 mm 4 mps 748 mmHg 93%
    06:00 +2°C° 0.4 mm 5 mps 748 mmHg 92%
    07:00 +3°C° 0.1 mm 5 mps 748 mmHg 85%
    08:00 +3°C° 0.1 mm 6 mps 749 mmHg 79%
    09:00 +4°C° 0 mm 6 mps 749 mmHg 71%
    10:00 +5°C° 0 mm 6 mps 749 mmHg 68%
    11:00 +5°C° 0 mm 6 mps 750 mmHg 64%
    12:00 +5°C° 0 mm 6 mps 750 mmHg 61%
    13:00 +5°C° 0 mm 6 mps 751 mmHg 60%
    14:00 +4°C° 0 mm 6 mps 751 mmHg 59%
    15:00 +3°C° 0 mm 6 mps 751 mmHg 59%
    16:00 +3°C° 0 mm 6 mps 752 mmHg 59%
    17:00 +2°C° 0 mm 5 mps 752 mmHg 60%
    18:00 +1°C° 0 mm 5 mps 752 mmHg 60%
    19:00 0°C° 0 mm 4 mps 753 mmHg 62%
    20:00 0°C° 0 mm 4 mps 753 mmHg 64%
    21:00 0°C° 0 mm 3 mps 753 mmHg 65%
    22:00 -1°C° 0 mm 3 mps 753 mmHg 66%
    23:00 -1°C° 0 mm 2 mps 753 mmHg 67%

    Tomorrow, 21 April, Saturday

    Time Temperature Precipitation Wind Pressure Humidity
    00:00 -1°C° 0 mm 2 mps 753 mmHg 68%
    01:00 -2°C° 0 mm 2 mps 753 mmHg 70%
    02:00 0°C° 0 mm 1 mps 753 mmHg 73%
    03:00 -1°C° 0 mm 1 mps 753 mmHg 75%
    04:00 -1°C° 0 mm 1 mps 753 mmHg 73%
    05:00 -1°C° 0 mm 1 mps 753 mmHg 71%
    06:00 0°C° 0 mm 1 mps 753 mmHg 68%
    07:00 +1°C° 0 mm 1 mps 752 mmHg 61%
    08:00 +2°C° 0 mm 1 mps 752 mmHg 54%
    09:00 +2°C° 0 mm 2 mps 752 mmHg 47%
    10:00 +2°C° 0 mm 3 mps 751 mmHg 46%
    11:00 +3°C° 0 mm 3 mps 750 mmHg 44%
    12:00 +4°C° 0 mm 4 mps 749 mmHg 43%
    13:00 +4°C° 0.1 mm 4 mps 749 mmHg 46%
    14:00 +3°C° 0.1 mm 5 mps 748 mmHg 50%
    15:00 +3°C° 0.1 mm 5 mps 747 mmHg 53%
    16:00 +3°C° 0.3 mm 5 mps 746 mmHg 57%
    17:00 +2°C° 0.3 mm 5 mps 745 mmHg 61%
    18:00 +2°C° 0.3 mm 6 mps 744 mmHg 66%
    19:00 +2°C° 0.3 mm 6 mps 743 mmHg 67%
    20:00 +2°C° 0.3 mm 7 mps 742 mmHg 69%
    21:00 +2°C° 0.3 mm 7 mps 741 mmHg 71%
    22:00 +2°C° 0.3 mm 8 mps 739 mmHg 75%
    23:00 +2°C° 0.3 mm 8 mps 738 mmHg 79%

    Day after tomorrow, 22 April, Sunday

    Time Temperature Precipitation Wind Pressure Humidity
    00:00 +4°C° 0.3 mm 8 mps 736 mmHg 83%
    01:00 +4°C° 1.1 mm 8 mps 735 mmHg 85%
    02:00 +5°C° 1.1 mm 8 mps 734 mmHg 86%
    03:00 +5°C° 1.1 mm 8 mps 733 mmHg 88%
    04:00 +5°C° 1 mm 7 mps 733 mmHg 89%
    05:00 +5°C° 1 mm 7 mps 732 mmHg 91%
    06:00 +5°C° 1 mm 6 mps 732 mmHg 93%
    07:00 +5°C° 0.2 mm 6 mps 732 mmHg 88%
    08:00 +7°C° 0.2 mm 5 mps 732 mmHg 83%
    09:00 +7°C° 0.2 mm 5 mps 732 mmHg 78%
    10:00 +7°C° 0.1 mm 6 mps 732 mmHg 73%
    11:00 +8°C° 0.1 mm 6 mps 733 mmHg 68%
    12:00 +9°C° 0.1 mm 6 mps 733 mmHg 63%
    13:00 +8°C° 0.3 mm 6 mps 733 mmHg 64%
    14:00 +8°C° 0.3 mm 7 mps 733 mmHg 64%
    15:00 +8°C° 0.3 mm 7 mps 733 mmHg 65%
    16:00 +7°C° 0.1 mm 6 mps 734 mmHg 68%
    17:00 +6°C° 0.1 mm 5 mps 734 mmHg 71%
    18:00 +5°C° 0.1 mm 5 mps 735 mmHg 73%
    19:00 +4°C° 0.1 mm 4 mps 735 mmHg 76%
    20:00 +3°C° 0.1 mm 4 mps 735 mmHg 80%
    21:00 +1°C° 0.1 mm 4 mps 736 mmHg 83%
    22:00 +1°C° 0 mm 4 mps 736 mmHg 84%
    23:00 0°C° 0 mm 4 mps 736 mmHg 85%

    23 April, Monday

    Time Temperature Precipitation Wind Pressure Humidity
    00:00 -1°C° 0 mm 4 mps 736 mmHg 86%
    01:00 0°C° 0.2 mm 4 mps 737 mmHg 87%
    02:00 0°C° 0.2 mm 4 mps 737 mmHg 87%
    03:00 0°C° 0.2 mm 4 mps 737 mmHg 88%
    04:00 0°C° 0.3 mm 4 mps 737 mmHg 89%
    05:00 0°C° 0.3 mm 4 mps 738 mmHg 90%
    06:00 0°C° 0.3 mm 4 mps 738 mmHg 90%
    07:00 0°C° 0.2 mm 4 mps 738 mmHg 88%
    08:00 +1°C° 0.2 mm 4 mps 739 mmHg 87%
    09:00 +1°C° 0.2 mm 4 mps 739 mmHg 85%
    10:00 +1°C° 0.2 mm 5 mps 740 mmHg 83%
    11:00 +1°C° 0.2 mm 5 mps 741 mmHg 82%
    12:00 +2°C° 0.2 mm 5 mps 741 mmHg 80%
    13:00 +2°C° 0.1 mm 5 mps 742 mmHg 79%
    14:00 +2°C° 0.1 mm 5 mps 742 mmHg 77%
    15:00 +2°C° 0.1 mm 5 mps 743 mmHg 76%
    16:00 +1°C° 0.1 mm 5 mps 743 mmHg 78%
    17:00 +1°C° 0.1 mm 5 mps 744 mmHg 80%
    18:00 0°C° 0.1 mm 5 mps 744 mmHg 82%
    19:00 0°C° 0.1 mm 5 mps 745 mmHg 84%
    20:00 -1°C° 0.1 mm 5 mps 745 mmHg 85%
    21:00 -1°C° 0.1 mm 5 mps 746 mmHg 87%
    22:00 -1°C° 0.1 mm 5 mps 746 mmHg 88%
    23:00 -1°C° 0.1 mm 5 mps 746 mmHg 88%

    24 April, Tuesday

    Time Temperature Precipitation Wind Pressure Humidity
    00:00 -1°C° 0.1 mm 4 mps 747 mmHg 89%
    01:00 -1°C° 0.1 mm 5 mps 747 mmHg 89%
    02:00 -2°C° 0.1 mm 5 mps 747 mmHg 88%
    03:00 -2°C° 0.1 mm 5 mps 748 mmHg 88%
    04:00 -2°C° 0 mm 5 mps 748 mmHg 87%
    05:00 -2°C° 0 mm 5 mps 749 mmHg 86%
    06:00 -2°C° 0 mm 5 mps 749 mmHg 86%
    07:00 -2°C° 0 mm 5 mps 749 mmHg 83%
    08:00 -2°C° 0 mm 5 mps 750 mmHg 81%
    09:00 -1°C° 0 mm 5 mps 750 mmHg 78%
    10:00 -1°C° 0 mm 5 mps 751 mmHg 76%
    11:00 0°C° 0 mm 5 mps 751 mmHg 74%
    12:00 +1°C° 0 mm 5 mps 751 mmHg 71%
    13:00 +1°C° 0 mm 5 mps 752 mmHg 70%
    14:00 +1°C° 0 mm 5 mps 752 mmHg 68%
    15:00 +2°C° 0 mm 5 mps 753 mmHg 66%
    16:00 +1°C° 0 mm 5 mps 753 mmHg 68%
    17:00 +1°C° 0 mm 4 mps 753 mmHg 69%
    18:00 0°C° 0 mm 4 mps 754 mmHg 71%
    19:00 +1°C° 0 mm 3 mps 754 mmHg 73%
    20:00 0°C° 0 mm 3 mps 754 mmHg 76%
    21:00 -1°C° 0 mm 2 mps 755 mmHg 79%
    22:00 -1°C° 0 mm 2 mps 755 mmHg 80%
    23:00 -2°C° 0 mm 2 mps 755 mmHg 81%

    25 April, Wednesday

    Time Temperature Precipitation Wind Pressure Humidity
    00:00 -2°C° 0 mm 2 mps 755 mmHg 82%
    01:00 0°C° 0 mm 1 mps 755 mmHg 83%
    02:00 -1°C° 0 mm 1 mps 756 mmHg 84%
    03:00 -1°C° 0 mm 1 mps 756 mmHg 85%
    04:00 -1°C° 0 mm 1 mps 756 mmHg 82%
    05:00 0°C° 0 mm 1 mps 756 mmHg 78%
    06:00 0°C° 0 mm 1 mps 757 mmHg 75%
    07:00 +2°C° 0 mm 1 mps 757 mmHg 68%
    08:00 +3°C° 0 mm 1 mps 757 mmHg 60%
    09:00 +5°C° 0 mm 1 mps 757 mmHg 53%
    10:00 +6°C° 0 mm 1 mps 757 mmHg 51%
    11:00 +6°C° 0 mm 2 mps 757 mmHg 48%
    12:00 +6°C° 0 mm 2 mps 757 mmHg 46%
    13:00 +7°C° 0 mm 2 mps 756 mmHg 46%
    14:00 +8°C° 0 mm 2 mps 756 mmHg 45%
    15:00 +9°C° 0 mm 3 mps 756 mmHg 44%
    16:00 +8°C° 0 mm 2 mps 756 mmHg 49%
    17:00 +7°C° 0 mm 2 mps 755 mmHg 54%
    18:00 +7°C° 0 mm 2 mps 755 mmHg 58%
    19:00 +5°C° 0 mm 3 mps 755 mmHg 62%
    20:00 +3°C° 0 mm 3 mps 755 mmHg 67%
    21:00 +1°C° 0 mm 4 mps 755 mmHg 71%
    22:00 +1°C° 0 mm 4 mps 755 mmHg 72%
    23:00 +1°C° 0 mm 4 mps 755 mmHg 72%
    Show more